Location: Coed Ely
(51.5661°N, 3.4150°W)
Time: 01:05:45
(UTC+00:00)

Cosmos 1953 Rocket - Pass Details

Date: 28 January 2021
Orbit: 604 x 634 km, 82.5° (Epoch: 28 February)

Event Time Altitude Azimuth Distance (km) Brightness Sun altitude
Rises 19:47:24 0° 205° (SSW) 2,866 7.2 -26.5°
Reaches altitude 10° 19:49:41 10° 211° (SSW) 1,962 6.4 -26.8°
Maximum altitude 19:53:52 46° 286° (WNW) 819 4.5 -27.5°
Enters shadow 19:55:19 33° 335° (NNW) 1,025 4.8 -27.7°
